Radiation Dose at Monitoring Post of Fukushima Daini Nuclear Power Station
Date,Time,MP-1(microSv/h),MP-2(microSv/h),MP-3(microSv/h),MP-4(microSv/h),MP-5(microSv/h),MP-6(microSv/h),MP-7(microSv/h),Wind Direction,Wind Velocity(m/s),Rain
2024/02/06,00:00,0.139,0.124,0.187,0.175,0.185,0.111,0.074,northwest,10.6,Yes
2024/02/06,00:10,0.139,0.124,0.186,0.175,0.185,0.111,0.074,northwest,11.2,Yes
2024/02/06,00:20,0.140,0.125,0.187,0.175,0.185,0.112,0.075,northwest,10.9,Yes
2024/02/06,00:30,0.140,0.125,0.188,0.175,0.186,0.112,0.074,north-northwest,11.7,Yes
2024/02/06,00:40,0.140,0.125,0.187,0.175,0.186,0.111,0.075,northwest,10.9,Yes
2024/02/06,00:50,0.139,0.125,0.187,0.175,0.185,0.112,0.073,north-northwest,10.9,Yes
2024/02/06,01:00,0.141,0.124,0.188,0.176,0.186,0.111,0.074,north-northwest,9.5,Yes
2024/02/06,01:10,0.141,0.124,0.187,0.175,0.185,0.110,0.075,northwest,10.0,Yes
2024/02/06,01:20,0.140,0.124,0.187,0.175,0.184,0.111,0.074,northwest,9.8,Yes
2024/02/06,01:30,0.139,0.126,0.187,0.174,0.185,0.111,0.074,north-northwest,10.7,Yes
2024/02/06,01:40,0.140,0.124,0.188,0.173,0.185,0.110,0.073,north-northwest,10.6,Yes
2024/02/06,01:50,0.141,0.125,0.187,0.175,0.185,0.111,0.074,northwest,10.9,Yes
2024/02/06,02:00,0.140,0.125,0.187,0.173,0.185,0.110,0.073,northwest,10.4,Yes
2024/02/06,02:10,0.140,0.125,0.188,0.174,0.185,0.111,0.074,northwest,10.6,Yes
2024/02/06,02:20,0.140,0.125,0.188,0.175,0.184,0.111,0.073,north-northwest,12.0,Yes
2024/02/06,02:30,0.140,0.125,0.187,0.175,0.185,0.112,0.073,north-northwest,12.3,Yes
2024/02/06,02:40,0.139,0.125,0.188,0.174,0.185,0.111,0.074,north-northwest,11.4,Yes
2024/02/06,02:50,0.139,0.125,0.188,0.175,0.185,0.110,0.073,northwest,10.9,Yes
2024/02/06,03:00,0.140,0.126,0.188,0.175,0.186,0.111,0.074,north-northwest,11.7,Yes
2024/02/06,03:10,0.140,0.125,0.188,0.175,0.186,0.110,0.074,north-northwest,12.3,Yes
2024/02/06,03:20,0.141,0.126,0.188,0.175,0.186,0.110,0.074,northwest,11.4,Yes
2024/02/06,03:30,0.142,0.126,0.189,0.176,0.186,0.111,0.074,northwest,12.3,Yes
2024/02/06,03:40,0.141,0.126,0.189,0.175,0.187,0.111,0.075,northwest,12.2,Yes
2024/02/06,03:50,0.142,0.127,0.189,0.176,0.188,0.113,0.075,north-northwest,10.9,Yes
2024/02/06,04:00,0.142,0.127,0.190,0.175,0.188,0.113,0.075,north-northwest,10.0,Yes
2024/02/06,04:10,0.142,0.127,0.190,0.176,0.188,0.112,0.075,northwest,10.3,Yes
2024/02/06,04:20,0.141,0.126,0.190,0.177,0.188,0.113,0.075,northwest,10.6,Yes
2024/02/06,04:30,0.142,0.126,0.189,0.176,0.187,0.112,0.075,north-northwest,11.7,Yes
2024/02/06,04:40,0.141,0.126,0.189,0.176,0.187,0.112,0.075,northwest,10.9,Yes
2024/02/06,04:50,0.141,0.127,0.189,0.176,0.186,0.111,0.074,northwest,9.7,Yes
2024/02/06,05:00,0.141,0.126,0.188,0.175,0.186,0.112,0.074,northwest,9.8,Yes
2024/02/06,05:10,0.141,0.125,0.189,0.175,0.186,0.112,0.074,northwest,10.7,Yes
2024/02/06,05:20,0.140,0.126,0.190,0.176,0.186,0.111,0.074,northwest,10.9,Yes
2024/02/06,05:30,0.141,0.126,0.191,0.176,0.187,0.111,0.074,northwest,11.5,Yes
2024/02/06,05:40,0.142,0.127,0.189,0.176,0.187,0.112,0.075,northwest,10.6,Yes
2024/02/06,05:50,0.142,0.126,0.190,0.176,0.188,0.112,0.074,north-northwest,11.7,Yes
2024/02/06,06:00,0.142,0.126,0.190,0.176,0.189,0.113,0.075,northwest,10.9,Yes
2024/02/06,06:10,0.142,0.127,0.189,0.176,0.189,0.113,0.075,north-northwest,12.2,Yes
2024/02/06,06:20,0.142,0.127,0.190,0.177,0.188,0.113,0.076,northwest,10.9,Yes
2024/02/06,06:30,0.142,0.126,0.190,0.176,0.188,0.113,0.075,northwest,10.9,Yes
2024/02/06,06:40,0.141,0.127,0.191,0.177,0.188,0.113,0.075,northwest,11.2,Yes
2024/02/06,06:50,0.142,0.126,0.189,0.176,0.188,0.114,0.075,northwest,10.6,Yes
2024/02/06,07:00,0.141,0.126,0.191,0.176,0.188,0.113,0.075,north-northwest,11.4,Yes
2024/02/06,07:10,0.141,0.126,0.190,0.176,0.188,0.112,0.075,northwest,10.3,No
2024/02/06,07:20,0.141,0.126,0.190,0.175,0.187,0.112,0.074,northwest,10.1,No
2024/02/06,07:30,0.141,0.126,0.190,0.175,0.188,0.112,0.074,northwest,10.3,Yes
2024/02/06,07:40,0.140,0.125,0.190,0.176,0.188,0.112,0.074,north-northwest,10.3,Yes
2024/02/06,07:50,0.141,0.126,0.189,0.175,0.187,0.112,0.075,northwest,10.4,Yes
2024/02/06,08:00,0.141,0.126,0.190,0.175,0.187,0.112,0.074,north-northwest,10.0,No
2024/02/06,08:10,0.141,0.126,0.189,0.175,0.188,0.111,0.074,north-northwest,8.7,No
2024/02/06,08:20,0.141,0.126,0.190,0.175,0.188,0.112,0.073,northwest,10.4,Yes
2024/02/06,08:30,0.141,0.125,0.190,0.176,0.187,0.112,0.073,north-northwest,9.3,No
2024/02/06,08:40,0.141,0.125,0.189,0.176,0.187,0.112,0.074,northwest,10.0,Yes
2024/02/06,08:50,0.141,0.125,0.190,0.175,0.189,0.111,0.074,northwest,9.6,Yes
2024/02/06,09:00,0.140,0.126,0.191,0.176,0.188,0.111,0.073,north-northwest,10.3,Yes
2024/02/06,09:10,0.141,0.126,0.190,0.175,0.188,0.112,0.073,north-northwest,7.3,Yes
2024/02/06,09:20,0.139,0.125,0.189,0.176,0.189,0.111,0.073,northwest,8.2,Yes
2024/02/06,09:30,0.141,0.125,0.190,0.176,0.188,0.112,0.074,north-northwest,8.6,Yes
2024/02/06,09:40,0.141,0.126,0.191,0.176,0.188,0.112,0.074,north-northwest,8.1,No
2024/02/06,09:50,0.140,0.126,0.190,0.175,0.189,0.112,0.073,northwest,7.9,No
2024/02/06,10:00,0.141,0.126,0.192,0.176,0.188,0.113,0.074,northwest,9.3,No
2024/02/06,10:10,0.141,0.126,0.192,0.178,0.188,0.112,0.074,northwest,8.4,No
2024/02/06,10:20,0.140,0.127,0.192,0.176,0.189,0.113,0.075,northwest,7.9,No
2024/02/06,10:30,0.140,0.126,0.191,0.178,0.188,0.112,0.073,north-northwest,7.0,No
2024/02/06,10:40,0.141,0.126,0.191,0.177,0.190,0.113,0.075,north-northwest,7.1,Yes
2024/02/06,10:50,0.141,0.127,0.192,0.176,0.189,0.113,0.074,north-northwest,6.3,Yes
2024/02/06,11:00,0.141,0.127,0.193,0.178,0.189,0.113,0.074,north-northwest,7.3,No
2024/02/06,11:10,0.141,0.127,0.192,0.178,0.189,0.113,0.074,north-northwest,7.2,No
2024/02/06,11:20,0.141,0.126,0.193,0.178,0.190,0.113,0.074,north-northwest,5.5,No
2024/02/06,11:30,0.141,0.126,0.192,0.178,0.190,0.114,0.075,north-northwest,5.3,Yes
2024/02/06,11:40,0.142,0.127,0.193,0.178,0.189,0.114,0.074,north-northwest,6.4,Yes
2024/02/06,11:50,0.142,0.126,0.194,0.178,0.191,0.113,0.074,north-northwest,5.9,Yes
2024/02/06,12:00,0.142,0.127,0.194,0.179,0.190,0.114,0.075,north-northwest,6.1,Yes
2024/02/06,12:10,0.141,0.127,0.194,0.178,0.190,0.113,0.075,north-northwest,6.4,Yes
2024/02/06,12:20,0.141,0.127,0.193,0.179,0.191,0.114,0.075,north-northwest,5.8,No
2024/02/06,12:30,0.142,0.127,0.195,0.180,0.190,0.113,0.074,northwest,6.1,Yes
2024/02/06,12:40,0.142,0.127,0.194,0.179,0.191,0.113,0.074,north-northwest,7.7,No
2024/02/06,12:50,0.141,0.127,0.195,0.180,0.192,0.113,0.074,north-northwest,7.0,No
2024/02/06,13:00,0.141,0.128,0.196,0.179,0.193,0.114,0.074,north-northwest,7.1,No
2024/02/06,13:10,0.142,0.128,0.195,0.180,0.191,0.113,0.075,north-northwest,6.5,No
2024/02/06,13:20,0.142,0.127,0.195,0.180,0.192,0.113,0.075,north-northwest,7.0,No
2024/02/06,13:30,0.142,0.127,0.196,0.179,0.192,0.113,0.074,north-northwest,7.3,No
2024/02/06,13:40,0.143,0.127,0.196,0.180,0.193,0.114,0.074,north-northwest,7.6,No
2024/02/06,13:50,0.141,0.128,0.197,0.181,0.192,0.113,0.074,north-northwest,7.4,No
2024/02/06,14:00,0.141,0.127,0.197,0.180,0.191,0.114,0.074,north-northwest,6.4,No
2024/02/06,14:10,0.142,0.128,0.197,0.181,0.192,0.114,0.074,north-northwest,7.9,No
2024/02/06,14:20,0.142,0.127,0.197,0.181,0.192,0.113,0.074,north-northwest,7.0,No
2024/02/06,14:30,0.142,0.128,0.198,0.181,0.193,0.114,0.075,north-northwest,8.4,Yes
2024/02/06,14:40,0.141,0.128,0.198,0.182,0.193,0.115,0.075,north-northwest,7.9,No
2024/02/06,14:50,0.142,0.127,0.199,0.181,0.193,0.114,0.075,north-northwest,7.9,No
2024/02/06,15:00,0.144,0.129,0.198,0.182,0.194,0.114,0.075,northwest,6.6,No
2024/02/06,15:10,0.143,0.127,0.199,0.182,0.194,0.114,0.075,north-northwest,7.3,No
2024/02/06,15:20,0.143,0.128,0.199,0.183,0.193,0.113,0.075,northwest,6.3,No
2024/02/06,15:30,0.143,0.128,0.200,0.182,0.195,0.115,0.074,north-northwest,7.0,No
2024/02/06,15:40,0.142,0.129,0.200,0.183,0.193,0.114,0.075,north-northwest,6.2,No
2024/02/06,15:50,0.143,0.128,0.199,0.183,0.195,0.114,0.075,north-northwest,6.4,No
2024/02/06,16:00,0.143,0.127,0.199,0.183,0.193,0.114,0.074,north-northwest,7.1,No
2024/02/06,16:10,0.144,0.127,0.199,0.183,0.195,0.113,0.074,north-northwest,7.1,No
2024/02/06,16:20,0.142,0.128,0.200,0.184,0.195,0.114,0.075,northwest,6.7,No
2024/02/06,16:30,0.142,0.128,0.200,0.183,0.195,0.114,0.074,north-northwest,7.1,No
2024/02/06,16:40,0.142,0.127,0.200,0.184,0.194,0.115,0.075,north-northwest,7.1,No
2024/02/06,16:50,0.143,0.128,0.200,0.184,0.194,0.114,0.075,north-northwest,7.1,No
2024/02/06,17:00,0.143,0.129,0.201,0.183,0.195,0.114,0.075,northwest,6.7,No
2024/02/06,17:10,0.144,0.128,0.200,0.183,0.195,0.114,0.074,north-northwest,6.5,No
2024/02/06,17:20,0.145,0.128,0.200,0.182,0.195,0.114,0.074,northwest,7.0,No
2024/02/06,17:30,0.142,0.128,0.201,0.184,0.196,0.115,0.074,northwest,7.4,No
2024/02/06,17:40,0.144,0.129,0.201,0.184,0.195,0.115,0.076,northwest,7.7,No
2024/02/06,17:50,0.144,0.128,0.201,0.185,0.195,0.113,0.075,northwest,7.1,No
2024/02/06,18:00,0.143,0.129,0.201,0.184,0.195,0.114,0.074,northwest,7.3,No
2024/02/06,18:10,0.143,0.129,0.201,0.184,0.194,0.114,0.076,northwest,7.3,No
2024/02/06,18:20,0.143,0.128,0.202,0.185,0.196,0.115,0.075,north-northwest,7.9,No
2024/02/06,18:30,0.144,0.129,0.202,0.185,0.196,0.115,0.075,north-northwest,7.5,No
2024/02/06,18:40,0.143,0.128,0.202,0.185,0.196,0.115,0.075,north-northwest,7.7,No
2024/02/06,18:50,0.143,0.128,0.201,0.185,0.195,0.114,0.074,northwest,7.7,No
2024/02/06,19:00,0.144,0.128,0.201,0.184,0.195,0.114,0.076,northwest,7.3,No
2024/02/06,19:10,0.144,0.129,0.200,0.183,0.195,0.115,0.075,northwest,7.0,No
2024/02/06,19:20,0.144,0.127,0.202,0.184,0.195,0.114,0.074,north-northwest,6.8,No
2024/02/06,19:30,0.143,0.128,0.201,0.185,0.196,0.115,0.076,northwest,6.5,No
2024/02/06,19:40,0.143,0.129,0.202,0.185,0.196,0.114,0.075,north-northwest,6.6,No
2024/02/06,19:50,0.144,0.129,0.203,0.185,0.196,0.115,0.075,north-northwest,6.2,No
2024/02/06,20:00,0.144,0.129,0.201,0.185,0.196,0.115,0.076,northwest,6.2,No
2024/02/06,20:10,0.144,0.128,0.202,0.186,0.195,0.115,0.076,northwest,6.3,No
2024/02/06,20:20,0.144,0.128,0.202,0.186,0.196,0.114,0.075,northwest,6.3,No
2024/02/06,20:30,0.144,0.128,0.203,0.186,0.197,0.113,0.075,north-northwest,6.3,No
2024/02/06,20:40,0.144,0.129,0.202,0.184,0.196,0.114,0.075,north-northwest,6.4,No
2024/02/06,20:50,0.144,0.128,0.202,0.185,0.197,0.115,0.076,north-northwest,5.9,No
2024/02/06,21:00,0.143,0.128,0.202,0.186,0.196,0.116,0.075,north-northwest,5.8,No
2024/02/06,21:10,0.144,0.129,0.202,0.186,0.196,0.115,0.075,northwest,5.8,No
2024/02/06,21:20,0.145,0.129,0.202,0.186,0.196,0.114,0.075,north-northwest,6.2,No
2024/02/06,21:30,0.144,0.129,0.202,0.186,0.197,0.115,0.076,north-northwest,6.5,No
2024/02/06,21:40,0.145,0.130,0.202,0.186,0.197,0.115,0.076,northwest,6.1,No
2024/02/06,21:50,0.144,0.129,0.202,0.186,0.197,0.114,0.075,north-northwest,5.8,No
2024/02/06,22:00,0.146,0.129,0.202,0.187,0.197,0.115,0.076,north-northwest,5.3,No
2024/02/06,22:10,0.145,0.129,0.203,0.186,0.197,0.115,0.075,north-northwest,4.8,No
2024/02/06,22:20,0.144,0.128,0.203,0.186,0.197,0.114,0.076,north-northwest,4.5,No
2024/02/06,22:30,0.143,0.130,0.202,0.186,0.196,0.115,0.075,north-northwest,3.8,No
2024/02/06,22:40,0.143,0.129,0.203,0.186,0.196,0.116,0.075,north-northwest,4.2,No
2024/02/06,22:50,0.144,0.128,0.202,0.185,0.196,0.115,0.075,northwest,4.2,No
2024/02/06,23:00,0.145,0.128,0.201,0.186,0.196,0.114,0.075,north-northwest,4.1,No
2024/02/06,23:10,0.144,0.129,0.202,0.186,0.197,0.115,0.075,north-northwest,5.3,No
2024/02/06,23:20,0.144,0.128,0.203,0.186,0.197,0.114,0.075,northwest,6.5,No
2024/02/06,23:30,0.143,0.128,0.202,0.186,0.198,0.114,0.075,northwest,7.3,No
2024/02/06,23:40,0.144,0.129,0.202,0.185,0.197,0.115,0.076,north-northwest,7.1,No
2024/02/06,23:50,0.143,0.128,0.202,0.186,0.196,0.115,0.075,northwest,5.1,No
